User: anonymous
Location: The D'Auria's Ocala Star Observatory
(29.0276°N, 82.1742°W)
Time: 03:31:53
(UTC-04:00)
Language:

Abrixas rocket - Orbit

View from above orbital plane
View from above orbital plane
View from above satellite
View from above satellite

Ground track
Ground track

The orbit data is extracted from the following two-line orbital elements,

1 25723U 99022C   14243.20648463  .00008877  00000-0  29369-3 0  7291
2 25723 048.4230 134.8819 0017659 215.8561 283.1773 15.31838964848652
Epoch (UTC): 31 August 2014 04:57:20
Eccentricity: 0.0017659
inclination: 48.4230°
perigee height: 458 km
apogee height: 482 km
right ascension of ascending node: 134.8819°
argument of perigee: 215.8561°
revolutions per day: 15.31838964
mean anomaly at epoch: 283.1773°
orbit number at epoch: 84865

The dashed part of the orbit path shows where the satellite is in the earth's shadow,  

DLR